{"data":{"norad_id":69535,"epoch":"2026-09-20T04:38:58.831872Z","epoch_age_seconds":51954,"freshness":"FRESH","line1":"1 69535U 26133AD  26263.19373648  .00014381  00000+0  43616-3 0  9992","line2":"2 69535  53.1582 231.3641 0001092  90.7601 269.3527 15.34384352 16705","mean_motion":15.34384352,"eccentricity":0.0001092,"inclination_deg":53.1582,"raan_deg":231.3641,"arg_perigee_deg":90.7601,"mean_anomaly_deg":269.3527,"bstar":0.00043616,"rev_number":1670,"period_min":93.84871516208,"perigee_km":462.00272492296,"apogee_km":463.4967745891,"semimajor_km":6840.886749756,"source":"CELESTRAK","updated_at":"2026-09-20T09:00:44.240900Z"}}